Location: Chaumontel
(49.1247°N, 2.4324°E)
Time: 13:18:47
(UTC+00:00)

COSMOS 2428 - Pass Details

Date: 07 August 2024
Orbit: 842 x 857 km, 70.9° (Epoch: 14 September)

Event Time Altitude Azimuth Distance (km) Brightness Sun altitude
Exits shadow 02:47:44 19° 202° (SSW) 1,914 4.0 -14.3°
Maximum altitude 02:51:55 82° 116° (ESE) 863 2.8 -13.9°
Drops below altitude 10° 02:57:38 10° 30° (NNE) 2,488 6.5 -13.2°
Sets 03:00:06 0° 30° (NNE) 3,430 7.5 -12.9°
